This is the latest recevied weather packets stored in our database for station/object CE3MXM-12. If no packets are shown the sender has not sent any weather packets the latest 10 day(s).
| Time | Temp. | Humidity | Pressure | Rain* | Wind** | Luminosity | Snow |
|---|---|---|---|---|---|---|---|
| 1777818547 | 18.33° C | 32% | 1017.3 hPa | - | - | - | - |
| 1777818247 | 17.78° C | 31% | 1017.3 hPa | - | - | - | - |
| 1777817947 | 17.78° C | 34% | 1017.4 hPa | - | - | - | - |
| 1777817647 | 17.78° C | 31% | 1017.5 hPa | - | - | - | - |
| 1777817346 | 18.33° C | 35% | 1017.3 hPa | - | - | - | - |
| 1777817046 | 18.33° C | 35% | 1017.3 hPa | - | - | - | - |
| 1777816746 | 18.33° C | 33% | 1017.2 hPa | - | - | - | - |
| 1777816446 | 18.33° C | 33% | 1017.2 hPa | - | - | - | - |
| 1777816146 | 17.78° C | 33% | 1017.2 hPa | - | - | - | - |
| 1777815846 | 18.33° C | 31% | 1017.3 hPa | - | - | - | - |
| 1777815546 | 18.33° C | 32% | 1017.1 hPa | - | - | - | - |
| 1777815246 | 18.33° C | 31% | 1017 hPa | - | - | - | - |
| 1777814946 | 18.33° C | 31% | 1017.1 hPa | - | - | - | - |
| 1777814645 | 17.78° C | 30% | 1017 hPa | - | - | - | - |
| 1777814346 | 17.78° C | 30% | 1016.9 hPa | - | - | - | - |
| 1777814045 | 17.78° C | 30% | 1016.8 hPa | - | - | - | - |
| 1777813745 | 17.22° C | 30% | 1016.8 hPa | - | - | - | - |
| 1777813445 | 17.22° C | 29% | 1016.6 hPa | - | - | - | - |
| 1777813145 | 17.22° C | 29% | 1016.6 hPa | - | - | - | - |
| 1777812845 | 17.22° C | 30% | 1016.8 hPa | - | - | - | - |
| 1777812545 | 16.67° C | 30% | 1016.4 hPa | - | - | - | - |
| 1777812245 | 16.67° C | 29% | 1016.8 hPa | - | - | - | - |
| 1777811945 | 16.67° C | 29% | 1016.6 hPa | - | - | - | - |
| 1777811644 | 16.67° C | 31% | 1016.5 hPa | - | - | - | - |
| 1777811344 | 16.67° C | 31% | 1016.4 hPa | - | - | - | - |
* Rain since midnight (hover to see other rain measurements)
** Current wind speed in m/s (hover to see current wind gust speed)